DLH490 EDDF-KSEA

Flight info

Callsign DLH490
Flight time N/A
Altitude 24000
Route MARUN Y152 ARPEG/N0472F340 Z850 ABILU DCT ATPAQ DCT OMIMA/N0476F360 DCT IPTON/M082F360 DCT 69N010W 73N020W 76N040W 77N060W/M082F380 DCT DOGGY/N0482F380 DCT 76N080W 7430N09000W 7130N10000W DCT YCB DCT 66N110W 61N115W DCT YQU/N0464F390 DCT YDC/N0464F400 DCT JAKSN GLASR3
Aircraft A346/H-SDE2E3FGHIJ3J4J5M1RWXY/LB1D1

Departure

Time 2026-05-06 06:51
Airport Frankfurt Main Airport (EDDF)

Arrival

Time N/A
Airport Seattle–Tacoma International Airport (KSEA)
Time Latitude Longitude Altitude Speed Heading
2026-05-06 06:33 50.04643 8.56643 364 ft 0 kts 115°
2026-05-06 06:39 50.04644 8.56639 370 ft 0 kts 115°
2026-05-06 06:39 50.04654 8.56605 370 ft 0 kts 115°
2026-05-06 06:39 50.04665 8.56567 366 ft 0 kts 115°
2026-05-06 06:39 50.04676 8.56530 369 ft 0 kts 110°
2026-05-06 06:40 50.04676 8.56503 370 ft 0 kts 71°
2026-05-06 06:40 50.04665 8.56481 368 ft 0 kts 32°
2026-05-06 06:40 50.04653 8.56473 369 ft 0 kts 17°
2026-05-06 06:42 50.04659 8.56475 366 ft 1 kts
2026-05-06 06:42 50.04667 8.56460 371 ft 5 kts 287°
2026-05-06 06:42 50.04654 8.56366 368 ft 11 kts 249°
2026-05-06 06:42 50.04633 8.56287 368 ft 12 kts 248°
2026-05-06 06:43 50.04598 8.56154 369 ft 14 kts 248°
2026-05-06 06:43 50.04553 8.56016 368 ft 15 kts 230°
2026-05-06 06:43 50.04466 8.55933 369 ft 15 kts 196°
2026-05-06 06:43 50.04364 8.55928 369 ft 12 kts 167°
2026-05-06 06:44 50.04306 8.55944 363 ft 13 kts 179°
2026-05-06 06:44 50.04212 8.55931 361 ft 11 kts 181°
2026-05-06 06:44 50.04126 8.55959 362 ft 13 kts 152°
2026-05-06 06:44 50.04088 8.56087 364 ft 15 kts 81°
2026-05-06 06:45 50.04120 8.56242 364 ft 15 kts 71°
2026-05-06 06:45 50.04155 8.56398 368 ft 15 kts 69°
2026-05-06 06:45 50.04193 8.56550 367 ft 15 kts 69°
2026-05-06 06:45 50.04231 8.56702 370 ft 15 kts 69°
2026-05-06 06:46 50.04267 8.56848 371 ft 14 kts 69°
2026-05-06 06:46 50.04303 8.57000 369 ft 15 kts 70°
2026-05-06 06:46 50.04338 8.57152 371 ft 15 kts 70°
2026-05-06 06:46 50.04375 8.57314 373 ft 16 kts 70°
2026-05-06 06:47 50.04414 8.57479 373 ft 17 kts 70°
2026-05-06 06:47 50.04453 8.57646 376 ft 12 kts 70°
2026-05-06 06:47 50.04484 8.57776 376 ft 14 kts 70°
2026-05-06 06:47 50.04519 8.57922 375 ft 15 kts 70°
2026-05-06 06:48 50.04558 8.58083 374 ft 17 kts 69°
2026-05-06 06:48 50.04596 8.58237 378 ft 3 kts 69°
2026-05-06 06:48 50.04610 8.58294 380 ft 9 kts 69°
2026-05-06 06:48 50.04634 8.58393 379 ft 11 kts 69°
2026-05-06 06:49 50.04643 8.58514 382 ft 12 kts 115°
2026-05-06 06:49 50.04590 8.58592 381 ft 10 kts 149°
2026-05-06 06:49 50.04524 8.58621 379 ft 8 kts 191°
2026-05-06 06:49 50.04499 8.58596 382 ft 1 kts 227°
2026-05-06 06:50 50.04482 8.58559 382 ft 17 kts 240°
2026-05-06 06:50 50.04365 8.58106 379 ft 72 kts 250°
2026-05-06 06:50 50.04132 8.57113 374 ft 121 kts 250°
2026-05-06 06:50 50.03787 8.55671 362 ft 162 kts 249°
2026-05-06 06:51 50.03347 8.53843 371 ft 195 kts 246°
2026-05-06 06:51 50.02883 8.51843 780 ft 198 kts 251°
2026-05-06 06:51 50.02716 8.49707 1349 ft 200 kts 270°
2026-05-06 06:51 50.02827 8.47571 2046 ft 195 kts 274°
2026-05-06 06:52 50.02945 8.45459 2498 ft 200 kts 269°
2026-05-06 06:52 50.02858 8.43232 2746 ft 211 kts 260°
2026-05-06 06:52 50.02605 8.40903 2983 ft 225 kts 258°
2026-05-06 06:52 50.02391 8.38411 3271 ft 242 kts 271°
2026-05-06 06:53 50.02861 8.35842 3663 ft 254 kts 299°
2026-05-06 06:53 50.04080 8.33845 4243 ft 260 kts 325°
2026-05-06 06:53 50.05673 8.32459 4815 ft 265 kts 329°
2026-05-06 06:53 50.07317 8.31124 5425 ft 268 kts 329°
2026-05-06 06:54 50.08976 8.29766 6082 ft 270 kts 329°
2026-05-06 06:54 50.10644 8.28383 6732 ft 274 kts 329°
2026-05-06 06:54 50.12457 8.27360 7318 ft 284 kts 352°
2026-05-06 06:54 50.14409 8.27751 7931 ft 293 kts 21°
2026-05-06 06:55 50.16236 8.29226 8602 ft 298 kts 28°
2026-05-06 06:55 50.18039 8.30861 9271 ft 302 kts 29°
2026-05-06 06:55 50.19869 8.32510 9901 ft 306 kts 28°
2026-05-06 06:55 50.21751 8.34171 10357 ft 316 kts 28°
2026-05-06 06:56 50.23721 8.35881 10638 ft 332 kts 28°
2026-05-06 06:56 50.25796 8.37670 10925 ft 348 kts 28°
2026-05-06 06:56 50.27981 8.39489 11191 ft 363 kts 25°
2026-05-06 06:56 50.30331 8.41146 11461 ft 377 kts 21°
2026-05-06 06:57 50.32840 8.42605 11741 ft 391 kts 18°
2026-05-06 06:57 50.35446 8.44015 12194 ft 400 kts 17°
2026-05-06 06:57 50.38107 8.45442 12846 ft 403 kts 17°
2026-05-06 06:57 50.40770 8.46881 13527 ft 406 kts 18°
2026-05-06 06:58 50.43451 8.48339 14103 ft 410 kts 18°
2026-05-06 06:58 50.46129 8.49803 14650 ft 413 kts 18°
2026-05-06 06:58 50.48871 8.51215 15224 ft 417 kts 16°
2026-05-06 06:58 50.51662 8.52559 15781 ft 420 kts 15°
2026-05-06 06:59 50.54479 8.53895 16346 ft 424 kts 15°
2026-05-06 06:59 50.57313 8.55242 16923 ft 427 kts 15°
2026-05-06 06:59 50.60167 8.56605 17494 ft 430 kts 15°
2026-05-06 06:59 50.63040 8.57981 18045 ft 434 kts 15°
2026-05-06 07:00 50.65941 8.59376 18526 ft 437 kts 16°
2026-05-06 07:00 50.68859 8.60782 19023 ft 440 kts 16°
2026-05-06 07:00 50.71801 8.62202 19516 ft 443 kts 16°
2026-05-06 07:00 50.74758 8.63630 19996 ft 445 kts 16°
2026-05-06 07:01 50.77760 8.64855 20415 ft 448 kts
2026-05-06 07:01 50.80858 8.64689 20846 ft 445 kts 346°
2026-05-06 07:01 50.83709 8.62984 21604 ft 433 kts 327°
2026-05-06 07:01 50.86022 8.60141 22364 ft 424 kts 311°
2026-05-06 07:02 50.87949 8.56614 22882 ft 425 kts 307°
2026-05-06 07:02 50.89833 8.52973 23222 ft 430 kts 307°
2026-05-06 07:02 50.91746 8.49285 23562 ft 435 kts 307°
2026-05-06 07:02 50.93694 8.45574 23825 ft 442 kts 308°
2026-05-06 07:03 50.95694 8.41798 23964 ft 451 kts 308°
2026-05-06 07:03 50.97736 8.37959 24171 ft 458 kts 308°
2026-05-06 07:03 50.99861 8.34151 24497 ft 462 kts 313°
2026-05-06 07:03 51.02245 8.30705 24882 ft 465 kts 320°
2026-05-06 07:04 51.04888 8.27704 25251 ft 468 kts 327°
2026-05-06 07:04 51.07708 8.25091 25638 ft 470 kts 330°
2026-05-06 07:04 51.10584 8.22580 26011 ft 472 kts 331°
2026-05-06 07:04 51.13468 8.20059 26379 ft 474 kts 331°
2026-05-06 07:05 51.16369 8.17501 26741 ft 477 kts 331°
2026-05-06 07:05 51.19273 8.14922 27098 ft 479 kts 331°
2026-05-06 07:05 51.22190 8.12320 27451 ft 481 kts 331°
2026-05-06 07:05 51.25113 8.09705 27866 ft 481 kts 331°
2026-05-06 07:06 51.28029 8.07090 28402 ft 479 kts 331°
2026-05-06 07:06 51.30931 8.04482 28940 ft 478 kts 331°
2026-05-06 07:06 51.33785 8.01915 29435 ft 477 kts 332°
2026-05-06 07:06 51.36737 7.99506 29881 ft 476 kts 336°
2026-05-06 07:07 51.39797 7.97477 30274 ft 475 kts 340°
2026-05-06 07:07 51.42932 7.95860 30637 ft 474 kts 345°
2026-05-06 07:07 51.46144 7.94653 30990 ft 474 kts 350°
2026-05-06 07:07 51.49405 7.93856 31358 ft 473 kts 354°
2026-05-06 07:08 51.52673 7.93266 31724 ft 473 kts 355°
2026-05-06 07:08 51.55947 7.92722 32080 ft 473 kts 355°
2026-05-06 07:08 51.59224 7.92180 32374 ft 474 kts 355°
2026-05-06 07:08 51.62508 7.91630 32610 ft 475 kts 355°
2026-05-06 07:09 51.65806 7.91066 32801 ft 477 kts 355°
2026-05-06 07:09 51.69068 7.90504 33049 ft 478 kts 355°
2026-05-06 07:09 51.72430 7.89919 33307 ft 480 kts 355°
2026-05-06 07:09 51.75757 7.89338 33550 ft 481 kts 355°
2026-05-06 07:10 51.79049 7.88762 33778 ft 483 kts 355°
2026-05-06 07:10 51.85747 7.87586 33787 ft 484 kts 355°
2026-05-06 07:11 51.92467 7.86404 33798 ft 486 kts 355°
2026-05-06 07:11 51.99208 7.85215 33803 ft 487 kts 355°
2026-05-06 07:12 52.05961 7.84020 33805 ft 489 kts 355°
2026-05-06 07:12 52.12750 7.82813 33799 ft 491 kts 355°
2026-05-06 07:13 52.19570 7.81601 33799 ft 493 kts 355°
2026-05-06 07:13 52.26347 7.80392 33805 ft 494 kts 355°
2026-05-06 07:14 52.33196 7.79165 33804 ft 495 kts 355°
2026-05-06 07:14 52.40060 7.77931 33819 ft 497 kts 355°
2026-05-06 07:15 52.46945 7.76690 33814 ft 498 kts 355°
2026-05-06 07:15 52.53816 7.75202 33813 ft 499 kts 351°
2026-05-06 07:16 52.60595 7.72620 33822 ft 500 kts 346°
2026-05-06 07:16 52.67322 7.69639 33829 ft 500 kts 345°
2026-05-06 07:17 52.74020 7.66659 33834 ft 501 kts 345°
2026-05-06 07:17 52.80754 7.63677 33834 ft 501 kts 345°
2026-05-06 07:18 52.87497 7.60693 33836 ft 502 kts 345°
2026-05-06 07:18 52.94243 7.57701 33831 ft 502 kts 345°
2026-05-06 07:19 53.01015 7.54688 33837 ft 503 kts 345°
2026-05-06 07:19 53.07787 7.51667 33847 ft 503 kts 345°
2026-05-06 07:20 53.14505 7.48659 33860 ft 504 kts 345°
2026-05-06 07:20 53.21274 7.45618 33861 ft 504 kts 344°
2026-05-06 07:21 53.28053 7.42562 33876 ft 505 kts 344°
2026-05-06 07:21 53.34845 7.39490 33879 ft 505 kts 344°
2026-05-06 07:22 53.41627 7.36413 33891 ft 504 kts 344°
2026-05-06 07:22 53.48403 7.33329 33874 ft 504 kts 343°
2026-05-06 07:23 53.55173 7.30236 33874 ft 503 kts 343°
2026-05-06 07:23 53.61889 7.27159 33878 ft 503 kts 343°
2026-05-06 07:24 53.68643 7.24055 33892 ft 502 kts 343°
2026-05-06 07:24 53.75380 7.20947 33891 ft 502 kts 343°
2026-05-06 07:25 53.82109 7.17832 33904 ft 501 kts 342°
2026-05-06 07:25 53.88828 7.14711 33913 ft 500 kts 342°
2026-05-06 07:26 53.95546 7.11582 33915 ft 499 kts 342°
2026-05-06 07:26 54.02198 7.08472 33923 ft 498 kts 342°
2026-05-06 07:27 54.08874 7.05342 33926 ft 497 kts 342°
2026-05-06 07:27 54.15546 7.02201 33931 ft 496 kts 341°
2026-05-06 07:28 54.22199 6.99059 33935 ft 495 kts 341°
2026-05-06 07:28 54.32112 6.94359 33944 ft 494 kts 341°
2026-05-06 07:29 54.38734 6.91206 33946 ft 493 kts 341°
2026-05-06 07:29 54.45342 6.88048 33946 ft 492 kts 341°
2026-05-06 07:30 54.51932 6.84889 33956 ft 491 kts 341°
2026-05-06 07:30 54.58518 6.81721 33957 ft 491 kts 341°
2026-05-06 07:31 54.63998 6.79077 33958 ft 490 kts 341°
2026-05-06 07:31 54.70562 6.75901 33961 ft 490 kts 341°
2026-05-06 07:32 54.77125 6.72715 33958 ft 489 kts 341°
2026-05-06 07:32 54.83678 6.69523 33964 ft 488 kts 341°
2026-05-06 07:33 54.90188 6.66342 33968 ft 488 kts 341°
2026-05-06 07:33 54.96727 6.63126 33973 ft 487 kts 340°
2026-05-06 07:34 55.03092 6.59201 33978 ft 483 kts 333°
2026-05-06 07:34 55.09255 6.54557 33984 ft 482 kts 332°
2026-05-06 07:35 55.15353 6.49864 33981 ft 481 kts 332°
2026-05-06 07:35 55.21485 6.45150 33990 ft 481 kts 332°
2026-05-06 07:36 55.27616 6.40435 33989 ft 480 kts 332°
2026-05-06 07:36 55.33745 6.35709 33996 ft 480 kts 332°
2026-05-06 07:37 55.39850 6.30987 34000 ft 480 kts 332°
2026-05-06 07:37 55.45917 6.26280 33997 ft 479 kts 332°
2026-05-06 07:38 55.52025 6.21524 34001 ft 479 kts 331°
2026-05-06 07:38 55.58120 6.16763 34002 ft 479 kts 331°
2026-05-06 07:39 55.64213 6.11984 34007 ft 479 kts 331°
2026-05-06 07:39 55.70302 6.07194 34013 ft 478 kts 331°
2026-05-06 07:40 55.76389 6.02389 34014 ft 478 kts 331°
2026-05-06 07:40 55.82437 5.97599 34017 ft 478 kts 331°
2026-05-06 07:41 55.88510 5.92773 34019 ft 478 kts 331°
2026-05-06 07:41 55.94580 5.87933 34024 ft 477 kts 331°
2026-05-06 07:42 56.00655 5.83073 34021 ft 477 kts 331°
2026-05-06 07:42 56.06716 5.78207 34024 ft 476 kts 331°
2026-05-06 07:43 56.12717 5.73373 34027 ft 476 kts 331°
2026-05-06 07:43 56.18768 5.68483 34034 ft 476 kts 331°
2026-05-06 07:44 56.24806 5.63587 34034 ft 475 kts 331°
2026-05-06 07:44 56.30831 5.58684 34040 ft 475 kts 331°
2026-05-06 07:45 56.36856 5.53762 34044 ft 475 kts 330°
2026-05-06 07:45 56.42879 5.48824 34040 ft 474 kts 330°
2026-05-06 07:46 56.48894 5.43876 34040 ft 474 kts 330°
2026-05-06 07:46 56.54857 5.38951 34045 ft 474 kts 330°
2026-05-06 07:47 56.60866 5.33972 34045 ft 474 kts 330°
2026-05-06 07:47 56.66877 5.28975 34046 ft 474 kts 330°
2026-05-06 07:48 56.72877 5.23969 34046 ft 474 kts 330°
2026-05-06 07:48 56.78878 5.18945 34051 ft 474 kts 329°
2026-05-06 07:49 56.84843 5.13933 34054 ft 474 kts 329°
2026-05-06 07:49 56.90835 5.08882 34050 ft 473 kts 329°
2026-05-06 07:50 56.96817 5.03822 34054 ft 473 kts 329°
2026-05-06 07:50 57.02806 4.98736 34051 ft 472 kts 329°
2026-05-06 07:51 57.08768 4.93655 34059 ft 472 kts 329°
2026-05-06 07:51 57.14690 4.88591 34060 ft 471 kts 329°
2026-05-06 07:52 57.20644 4.83480 34061 ft 471 kts 329°
2026-05-06 07:52 57.26586 4.78362 34053 ft 470 kts 328°
2026-05-06 07:53 57.32519 4.73234 34058 ft 470 kts 328°
2026-05-06 07:53 57.38445 4.68092 34063 ft 470 kts 328°
2026-05-06 07:54 57.44320 4.62978 34060 ft 470 kts 328°
2026-05-06 07:54 57.50241 4.57801 34062 ft 470 kts 328°
2026-05-06 07:55 57.56153 4.52616 34067 ft 469 kts 328°
2026-05-06 07:55 57.62065 4.47413 34065 ft 470 kts 328°
2026-05-06 07:56 57.67973 4.42194 34066 ft 470 kts 328°
2026-05-06 07:56 57.73882 4.36957 34071 ft 469 kts 328°
2026-05-06 07:57 57.79748 4.31738 34071 ft 469 kts 328°
2026-05-06 07:57 57.85647 4.26471 34072 ft 469 kts 328°
2026-05-06 07:58 57.91547 4.21183 34062 ft 469 kts 328°
2026-05-06 07:58 57.97429 4.15892 34072 ft 468 kts 328°
2026-05-06 07:59 58.03326 4.10570 34072 ft 468 kts 328°
2026-05-06 07:59 58.09164 4.05280 34080 ft 468 kts 328°
2026-05-06 08:00 58.15028 3.99948 34078 ft 467 kts 327°
2026-05-06 08:00 58.20881 3.94606 34082 ft 467 kts 327°
2026-05-06 08:01 58.26730 3.89248 34079 ft 466 kts 327°
2026-05-06 08:01 58.32599 3.83853 34076 ft 466 kts 327°
2026-05-06 08:02 58.38426 3.78475 34077 ft 465 kts 327°
2026-05-06 08:02 58.44247 3.73081 34084 ft 465 kts 327°
2026-05-06 08:03 58.50030 3.67704 34077 ft 464 kts 327°
2026-05-06 08:03 58.55853 3.62271 34076 ft 464 kts 327°
2026-05-06 08:04 58.61656 3.56837 34084 ft 464 kts 327°
2026-05-06 08:04 58.67452 3.51388 34073 ft 463 kts 327°
2026-05-06 08:05 58.73245 3.45922 34076 ft 463 kts 327°
2026-05-06 08:05 58.79028 3.40443 34076 ft 462 kts 327°
2026-05-06 08:06 58.84795 3.34960 34081 ft 461 kts 327°
2026-05-06 08:06 58.90547 3.29473 34076 ft 461 kts 327°
2026-05-06 08:07 58.96293 3.23969 34074 ft 460 kts 327°
2026-05-06 08:07 59.02037 3.18446 34074 ft 460 kts 327°
2026-05-06 08:08 59.07735 3.12946 34076 ft 459 kts 326°
2026-05-06 08:08 59.13467 3.07394 34074 ft 459 kts 327°
2026-05-06 08:09 59.19188 3.01831 34070 ft 459 kts 326°
2026-05-06 08:09 59.24904 2.96252 34067 ft 459 kts 326°
2026-05-06 08:10 59.30623 2.90650 34074 ft 459 kts 327°
2026-05-06 08:10 59.36345 2.85023 34068 ft 459 kts 327°
2026-05-06 08:11 59.42019 2.79421 34051 ft 459 kts 327°
2026-05-06 08:11 59.47738 2.73755 34058 ft 459 kts 327°
2026-05-06 08:12 59.53439 2.68085 34058 ft 459 kts 327°
2026-05-06 08:12 59.59143 2.62390 34059 ft 459 kts 327°
2026-05-06 08:13 59.64838 2.56684 34062 ft 459 kts 327°
2026-05-06 08:13 59.70525 2.50963 34058 ft 459 kts 327°
2026-05-06 08:14 59.76187 2.45245 34063 ft 459 kts 326°
2026-05-06 08:14 59.81878 2.39475 34063 ft 459 kts 326°
2026-05-06 08:15 59.87567 2.33686 34064 ft 460 kts 326°
2026-05-06 08:15 59.93266 2.27863 34050 ft 460 kts 326°
2026-05-06 08:16 59.98958 2.22025 34053 ft 460 kts 326°
2026-05-06 08:16 60.04670 2.16142 34050 ft 460 kts 326°
2026-05-06 08:17 60.10359 2.10261 34050 ft 460 kts 326°
2026-05-06 08:17 60.16050 2.04356 34048 ft 460 kts 326°
2026-05-06 08:18 60.21733 1.98436 34047 ft 460 kts 326°
2026-05-06 08:18 60.27410 1.92498 34045 ft 460 kts 326°
2026-05-06 08:19 60.33088 1.86535 34045 ft 460 kts 326°
2026-05-06 08:19 60.37808 1.81560 34049 ft 460 kts 326°
2026-05-06 08:20 60.43497 1.75543 34045 ft 460 kts 326°
2026-05-06 08:20 60.49182 1.69505 34037 ft 461 kts 326°
2026-05-06 08:21 60.54865 1.63446 34036 ft 461 kts 326°
2026-05-06 08:21 60.60515 1.57398 34037 ft 462 kts 326°
2026-05-06 08:22 60.66205 1.51283 34030 ft 462 kts 326°
2026-05-06 08:22 60.71895 1.45143 34028 ft 462 kts 327°
2026-05-06 08:23 60.77590 1.38973 34025 ft 462 kts 327°
2026-05-06 08:23 60.83269 1.32795 34023 ft 463 kts 327°
2026-05-06 08:24 60.88962 1.26577 34022 ft 463 kts 327°
2026-05-06 08:24 60.94613 1.20380 34018 ft 463 kts 327°
2026-05-06 08:25 61.00305 1.14112 34017 ft 463 kts 327°
2026-05-06 08:25 61.05989 1.07828 34013 ft 463 kts 327°
2026-05-06 08:26 61.11681 1.01508 34000 ft 463 kts 327°
2026-05-06 08:26 61.17352 0.95186 34008 ft 463 kts 327°
2026-05-06 08:27 61.23027 0.88833 34007 ft 463 kts 327°
2026-05-06 08:27 61.28699 0.82459 34004 ft 463 kts 327°
2026-05-06 08:28 61.34334 0.76100 34002 ft 464 kts 327°
2026-05-06 08:28 61.40002 0.69676 33997 ft 464 kts 327°
2026-05-06 08:29 61.45673 0.63222 33999 ft 464 kts 327°
2026-05-06 08:29 61.51344 0.56740 33996 ft 464 kts 327°
2026-05-06 08:30 61.57021 0.50226 33993 ft 464 kts 327°
2026-05-06 08:30 61.62693 0.43688 33988 ft 465 kts 327°
2026-05-06 08:31 61.68367 0.37121 33986 ft 465 kts 327°
2026-05-06 08:31 61.74038 0.30530 33985 ft 465 kts 327°
2026-05-06 08:32 61.79683 0.23941 33981 ft 465 kts 328°
2026-05-06 08:32 61.85358 0.17291 33984 ft 466 kts 328°
2026-05-06 08:33 61.91027 0.10618 33978 ft 466 kts 328°
2026-05-06 08:33 61.96692 0.03918 33977 ft 466 kts 328°
2026-05-06 08:34 62.05366 -0.05693 33964 ft 468 kts 330°
2026-05-06 08:35 62.11229 -0.11839 33980 ft 469 kts 330°
2026-05-06 08:35 62.17085 -0.18012 33971 ft 469 kts 330°
2026-05-06 08:36 62.22899 -0.24178 33968 ft 469 kts 330°
2026-05-06 08:36 62.28758 -0.30425 33964 ft 469 kts 330°
2026-05-06 08:37 62.34615 -0.36698 33966 ft 470 kts 330°
2026-05-06 08:37 62.40476 -0.43004 33963 ft 470 kts 331°
2026-05-06 08:38 62.46292 -0.49289 33960 ft 470 kts 331°
2026-05-06 08:38 62.52146 -0.55644 33960 ft 471 kts 331°
2026-05-06 08:39 62.58024 -0.62052 33964 ft 471 kts 331°
2026-05-06 08:39 62.63903 -0.68492 34027 ft 475 kts 331°
2026-05-06 08:39 62.66848 -0.71728 34339 ft 474 kts 331°
2026-05-06 08:40 62.69787 -0.74963 34699 ft 472 kts 331°
2026-05-06 08:40 62.72716 -0.78196 35024 ft 471 kts 331°
2026-05-06 08:40 62.75647 -0.81439 35310 ft 471 kts 331°
2026-05-06 08:40 62.78581 -0.84691 35566 ft 472 kts 331°
2026-05-06 08:41 62.81473 -0.87905 35803 ft 472 kts 331°
2026-05-06 08:41 62.84409 -0.91176 35959 ft 473 kts 331°
2026-05-06 08:41 62.87344 -0.94451 35959 ft 473 kts 331°
2026-05-06 08:42 62.93216 -1.01026 35946 ft 473 kts 331°
2026-05-06 08:42 62.99076 -1.07620 35964 ft 473 kts 331°
2026-05-06 08:43 63.04956 -1.14266 35956 ft 474 kts 331°
2026-05-06 08:43 63.10822 -1.20926 35961 ft 474 kts 331°
2026-05-06 08:44 63.16649 -1.27572 35962 ft 474 kts 331°
2026-05-06 08:44 63.22515 -1.34294 35962 ft 474 kts 331°
2026-05-06 08:45 63.28373 -1.41036 35961 ft 474 kts 331°
2026-05-06 08:45 63.34233 -1.47812 35964 ft 474 kts 331°
2026-05-06 08:46 63.40087 -1.54612 35962 ft 474 kts 331°
2026-05-06 08:46 63.45936 -1.61440 35969 ft 474 kts 331°
2026-05-06 08:47 63.51779 -1.68291 35966 ft 474 kts 331°
2026-05-06 08:47 63.57627 -1.75180 35964 ft 474 kts 331°
2026-05-06 08:48 63.63467 -1.82091 35965 ft 474 kts 331°
2026-05-06 08:48 63.69269 -1.88992 35965 ft 474 kts 331°
2026-05-06 08:49 63.75109 -1.95969 35964 ft 474 kts 330°
2026-05-06 08:49 63.80957 -2.02988 35972 ft 474 kts 330°
2026-05-06 08:50 63.86797 -2.10031 35969 ft 474 kts 330°
2026-05-06 08:50 63.92628 -2.17097 35975 ft 474 kts 330°
2026-05-06 08:51 63.98412 -2.24140 35973 ft 474 kts 330°
2026-05-06 08:51 64.04254 -2.31286 35977 ft 474 kts 330°
2026-05-06 08:52 64.10077 -2.38443 35976 ft 474 kts 330°
2026-05-06 08:52 64.15888 -2.45619 35977 ft 474 kts 330°
2026-05-06 08:53 64.21697 -2.52828 35979 ft 474 kts 330°
2026-05-06 08:53 64.27493 -2.60055 35980 ft 473 kts 330°
2026-05-06 08:54 64.33240 -2.67255 35984 ft 472 kts 330°
2026-05-06 08:54 64.39017 -2.74529 35987 ft 472 kts 330°
2026-05-06 08:55 64.44777 -2.81815 35985 ft 471 kts 330°
2026-05-06 08:55 64.50527 -2.89125 35987 ft 471 kts 330°
2026-05-06 08:56 64.56273 -2.96465 35993 ft 470 kts 330°
2026-05-06 08:56 64.62021 -3.03844 35993 ft 470 kts 330°
2026-05-06 08:57 64.67755 -3.11242 36001 ft 470 kts 330°
2026-05-06 08:57 64.73456 -3.18632 36006 ft 470 kts 330°
2026-05-06 08:58 64.79182 -3.26092 36008 ft 471 kts 330°
2026-05-06 08:58 64.84906 -3.33584 36008 ft 471 kts 330°
2026-05-06 08:59 64.90623 -3.41101 36012 ft 470 kts 330°
2026-05-06 08:59 64.96341 -3.48661 36015 ft 470 kts 330°
2026-05-06 09:00 65.02029 -3.56217 36021 ft 470 kts 330°
2026-05-06 09:00 65.07726 -3.63822 36026 ft 470 kts 330°
2026-05-06 09:01 65.13422 -3.71464 36026 ft 470 kts 330°
2026-05-06 09:01 65.19106 -3.79127 36029 ft 469 kts 330°
2026-05-06 09:02 65.24789 -3.86829 36033 ft 469 kts 330°
2026-05-06 09:02 65.30455 -3.94544 36040 ft 468 kts 330°
2026-05-06 09:03 65.36137 -4.02321 36045 ft 468 kts 330°
2026-05-06 09:03 65.41763 -4.10060 36046 ft 468 kts 330°
2026-05-06 09:04 65.47417 -4.17875 36044 ft 468 kts 330°
2026-05-06 09:04 65.53066 -4.25725 36047 ft 468 kts 330°
2026-05-06 09:05 65.58700 -4.33593 36051 ft 468 kts 330°
2026-05-06 09:05 65.64331 -4.41495 36053 ft 467 kts 330°
2026-05-06 09:06 65.69925 -4.49386 36059 ft 468 kts 330°
2026-05-06 09:06 65.75545 -4.57353 36055 ft 467 kts 330°
2026-05-06 09:07 65.81171 -4.65370 36061 ft 467 kts 330°
2026-05-06 09:07 65.86748 -4.73358 36062 ft 467 kts 330°
2026-05-06 09:08 65.92355 -4.81429 36066 ft 467 kts 330°
2026-05-06 09:08 65.97001 -4.88150 36070 ft 466 kts 330°
2026-05-06 09:09 66.02616 -4.96310 36072 ft 467 kts 330°
2026-05-06 09:09 66.08222 -5.04500 36071 ft 466 kts 330°
2026-05-06 09:10 66.13802 -5.12693 36077 ft 467 kts 329°
2026-05-06 09:10 66.19383 -5.20932 36078 ft 467 kts 329°
2026-05-06 09:11 66.24966 -5.29215 36082 ft 466 kts 329°
2026-05-06 09:11 66.30526 -5.37507 36081 ft 466 kts 329°
2026-05-06 09:12 66.36056 -5.45798 36084 ft 467 kts 329°
2026-05-06 09:12 66.41612 -5.54173 36088 ft 467 kts 329°
2026-05-06 09:13 66.47169 -5.62592 36094 ft 467 kts 329°
2026-05-06 09:13 66.52723 -5.71052 36095 ft 466 kts 329°
2026-05-06 09:14 66.58270 -5.79543 36098 ft 466 kts 329°
2026-05-06 09:14 66.63812 -5.88076 36100 ft 466 kts 329°
2026-05-06 09:15 66.69308 -5.96582 36099 ft 466 kts 329°